Regional Weather Roundup
Issued by NWS Sioux Falls, SD

Home | Current Version | Previous Version | Text Only | Print | Product List | Glossary On
Versions: 1 2 3 4 5 6 7 8 9 10 11 12 13 14 15 16 17 18 19 20 21 22 23 24 25 26 27 28 29 30 31 32 33 34 35 36 37 38 39 40 41 42 43 44 45 46 47 48 49 50
000
ASUS43 KFSD 281402
RWRFSD

WEATHER ROUNDUP FOR SE SOUTH DAKOTA/SW MINNESOTA/NW IOWA
NATIONAL WEATHER SERVICE SIOUX FALLS SD
900 AM CDT SUN MAY 28 2017

NOTE: "FAIR" INDICATES FEW OR NO CLOUDS BELOW 12,000 FEET WITH NO
SIGNIFICANT WEATHER AND OR OBSTRUCTIONS TO VISIBILITY.


SDZ038>040-050-052>070-281500-
SOUTHEAST SOUTH DAKOTA

CITY           SKY/WX    TMP DP  RH WIND       PRES   REMARKS
BROOKINGS      SUNNY     59  46  62 NW10      29.86R
CHAMBERLAIN    NOT AVBL
HURON          SUNNY     59  48  67 NW13      29.88R
MADISON        FAIR      57  52  82 W9        29.87S
MITCHELL       SUNNY     61  48  62 NW10      29.90R
SIOUX FALLS    MOSUNNY   62  49  62 VRB7      29.87R
WINNER         FAIR      63  47  55 NW18      29.97R
YANKTON        SUNNY     62  50  64 W12       29.90R
$$

MNZ071-072-080-081-089-090-097-098-281500-
SOUTHWEST MINNESOTA

CITY           SKY/WX    TMP DP  RH WIND       PRES   REMARKS
FAIRMONT       SUNNY     63  42  46 NW17      29.83R
JACKSON        SUNNY     61  45  55 N10G18    29.85R
MARSHALL       SUNNY     61  45  55 NW13      29.83F
MONTEVIDEO     SUNNY     63  48  59 NW8       29.82R
PIPESTONE      SUNNY     59  43  55 NW5       29.85S
REDWOOD FALLS  SUNNY     62  46  55 NW10      29.81S
TRACY          SUNNY     61  47  59 NW12      29.84S
WINDOM         SUNNY     63  45  51 NW12      29.84R
WORTHINGTON    MOSUNNY   62  44  51 NW12      29.86R
$$

IAZ001>003-012>014-020>022-031-032-NEZ013-014-SDZ071-281500-
NORTHWEST IOWA

CITY           SKY/WX    TMP DP  RH WIND       PRES   REMARKS
CHEROKEE       SUNNY     62  53  71 NW5       29.87S
DENISON        SUNNY     63  52  67 VRB6      29.91R
ESTHERVILLE    SUNNY     62  47  57 NW14      29.83S
LE MARS        SUNNY     63  50  63 MISG      29.89S
ORANGE CITY    SUNNY     61  54  77 W8        29.88S
SHELDON        SUNNY     61  48  63 W6        29.86S
SIOUX CITY     SUNNY     64  51  62 NW7       29.90R
SPENCER        SUNNY     62  51  67 NW7       29.86R
STORM LAKE     SUNNY     63  50  63 NW12      29.87R
$$

ABBREVIATIONS USED IN REMARKS
   TC - TEMPERATURE IN CELSIUS
  WCI - WIND CHILL INDEX
   HX - HEAT INDEX
  VSB - VISIBILITY





USA.gov is the U.S. government's official web portal to all federal, state and local government web resources and services.